OAL929 HCMM-HDAM

Flight info

Callsign OAL929
Flight time 2h 3m
Altitude 38000
Route TULAP UM665 MAV UQ554 DWA M997 ASTAR
Aircraft B738/M-V/N

Departure

Time 2026-04-23 15:34
Airport Aden Adde International Airport (HCMM)

Arrival

Time 2026-04-23 17:37
Airport Djibouti-Ambouli Airport (HDAM)
Time Latitude Longitude Altitude Speed Heading
2026-04-23 15:27 2.02273 45.31462 31 ft 0 kts 230°
2026-04-23 15:33 2.02262 45.31449 48 ft 20 kts 230°
2026-04-23 15:33 2.01979 45.31108 33 ft 105 kts 230°
2026-04-23 15:34 2.01351 45.30351 73 ft 172 kts 230°
2026-04-23 15:34 2.00610 45.29458 1066 ft 165 kts 230°
2026-04-23 15:34 1.99777 45.28642 1955 ft 175 kts 208°
2026-04-23 15:34 1.98469 45.28530 2339 ft 209 kts 163°
2026-04-23 15:35 1.97125 45.29218 2796 ft 224 kts 154°
2026-04-23 15:35 1.95717 45.29943 3401 ft 231 kts 156°
2026-04-23 15:35 1.94317 45.30633 3778 ft 232 kts 157°
2026-04-23 15:35 1.92820 45.31352 3818 ft 231 kts 157°
2026-04-23 15:36 1.91369 45.32036 3809 ft 230 kts 158°
2026-04-23 15:36 1.89914 45.32714 3836 ft 233 kts 158°
2026-04-23 15:36 1.88438 45.33397 3824 ft 235 kts 159°
2026-04-23 15:36 1.86947 45.34082 3835 ft 236 kts 158°
2026-04-23 15:37 1.85456 45.34766 3838 ft 236 kts 158°
2026-04-23 15:37 1.83962 45.35450 3843 ft 236 kts 158°
2026-04-23 15:37 1.82971 45.35901 3833 ft 236 kts 158°
2026-04-23 15:37 1.80981 45.36808 3845 ft 234 kts 158°
2026-04-23 15:38 1.79502 45.37482 3842 ft 233 kts 158°
2026-04-23 15:38 1.78030 45.38152 3829 ft 232 kts 159°
2026-04-23 15:38 1.76607 45.38927 3816 ft 238 kts 143°
2026-04-23 15:38 1.75399 45.40122 3999 ft 255 kts 136°
2026-04-23 15:39 1.74076 45.41429 4399 ft 274 kts 138°
2026-04-23 15:39 1.72686 45.42757 5156 ft 277 kts 138°
2026-04-23 15:39 1.71279 45.44093 5918 ft 282 kts 137°
2026-04-23 15:39 1.69872 45.45426 6715 ft 282 kts 137°
2026-04-23 15:40 1.68424 45.46797 7481 ft 285 kts 136°
2026-04-23 15:40 1.66900 45.48086 8111 ft 293 kts 150°
2026-04-23 15:40 1.64971 45.48625 8803 ft 294 kts 181°
2026-04-23 15:40 1.62972 45.48175 9627 ft 294 kts 208°
2026-04-23 15:41 1.61409 45.46887 10175 ft 301 kts 233°
2026-04-23 15:41 1.60261 45.45032 10376 ft 323 kts 242°
2026-04-23 15:41 1.59172 45.42988 10543 ft 344 kts 243°
2026-04-23 15:41 1.58027 45.40813 10684 ft 364 kts 243°
2026-04-23 15:42 1.56802 45.38512 10962 ft 377 kts 242°
2026-04-23 15:42 1.55556 45.36203 11528 ft 379 kts 242°
2026-04-23 15:42 1.54294 45.33890 12144 ft 381 kts 241°
2026-04-23 15:42 1.53032 45.31588 12666 ft 385 kts 241°
2026-04-23 15:43 1.51736 45.29223 13170 ft 389 kts 242°
2026-04-23 15:43 1.50661 45.26698 13588 ft 396 kts 256°
2026-04-23 15:43 1.50168 45.24013 14261 ft 391 kts 261°
2026-04-23 15:43 1.49709 45.21321 14734 ft 395 kts 260°
2026-04-23 15:44 1.49214 45.18616 15037 ft 403 kts 259°
2026-04-23 15:44 1.48686 45.15848 15524 ft 404 kts 259°
2026-04-23 15:44 1.48144 45.13067 16046 ft 405 kts 259°
2026-04-23 15:44 1.47602 45.10320 16475 ft 408 kts 259°
2026-04-23 15:45 1.47053 45.07543 16862 ft 412 kts 259°
2026-04-23 15:45 1.46493 45.04717 17307 ft 414 kts 259°
2026-04-23 15:45 1.45927 45.01860 17752 ft 417 kts 259°
2026-04-23 15:45 1.45367 44.99031 18142 ft 420 kts 259°
2026-04-23 15:46 1.44794 44.96136 18477 ft 423 kts 259°
2026-04-23 15:46 1.44227 44.93265 18812 ft 425 kts 259°
2026-04-23 15:46 1.43647 44.90333 19140 ft 428 kts 259°
2026-04-23 15:46 1.43074 44.87436 19441 ft 432 kts 259°
2026-04-23 15:47 1.42489 44.84476 19759 ft 434 kts 259°
2026-04-23 15:47 1.41897 44.81482 20076 ft 437 kts 259°
2026-04-23 15:47 1.41308 44.78500 20379 ft 440 kts 259°
2026-04-23 15:47 1.40714 44.75496 20668 ft 443 kts 259°
2026-04-23 15:48 1.40113 44.72456 20963 ft 446 kts 259°
2026-04-23 15:48 1.39512 44.69416 21276 ft 448 kts 259°
2026-04-23 15:48 1.38905 44.66348 21557 ft 450 kts 259°
2026-04-23 15:48 1.38297 44.63272 21817 ft 453 kts 259°
2026-04-23 15:49 1.37686 44.60181 22088 ft 456 kts 259°
2026-04-23 15:49 1.37068 44.57055 22351 ft 458 kts 259°
2026-04-23 15:49 1.36450 44.53932 22615 ft 461 kts 259°
2026-04-23 15:49 1.35835 44.50819 22866 ft 463 kts 259°
2026-04-23 15:50 1.35207 44.47647 23128 ft 465 kts 259°
2026-04-23 15:50 1.34580 44.44480 23400 ft 466 kts 259°
2026-04-23 15:50 1.34069 44.41265 23592 ft 468 kts 265°
2026-04-23 15:50 1.33852 44.38009 23812 ft 469 kts 269°
2026-04-23 15:51 1.33775 44.34761 24096 ft 468 kts 270°
2026-04-23 15:51 1.33735 44.31533 24351 ft 468 kts 270°
2026-04-23 15:51 1.33683 44.28256 24566 ft 469 kts 270°
2026-04-23 15:51 1.33604 44.25028 24772 ft 471 kts 269°
2026-04-23 15:52 1.33500 44.21763 25004 ft 471 kts 269°
2026-04-23 15:52 1.33376 44.18449 25251 ft 471 kts 269°
2026-04-23 15:52 1.33247 44.15217 25481 ft 471 kts 269°
2026-04-23 15:52 1.33111 44.11897 25691 ft 472 kts 269°
2026-04-23 15:53 1.32976 44.08620 25881 ft 474 kts 268°
2026-04-23 15:53 1.32843 44.05351 26086 ft 474 kts 268°
2026-04-23 15:53 1.32710 44.02068 26307 ft 475 kts 268°
2026-04-23 15:53 1.32578 43.98777 26505 ft 475 kts 268°
2026-04-23 15:54 1.32444 43.95434 26695 ft 476 kts 268°
2026-04-23 15:54 1.32313 43.92165 26873 ft 477 kts 268°
2026-04-23 15:54 1.32179 43.88818 27062 ft 477 kts 268°
2026-04-23 15:54 1.32046 43.85505 27249 ft 478 kts 268°
2026-04-23 15:55 1.31915 43.82226 27428 ft 478 kts 268°
2026-04-23 15:55 1.31781 43.78903 27601 ft 479 kts 268°
2026-04-23 15:55 1.31647 43.75574 27766 ft 480 kts 268°
2026-04-23 15:55 1.31513 43.72233 27938 ft 480 kts 268°
2026-04-23 15:56 1.31379 43.68898 28109 ft 481 kts 268°
2026-04-23 15:56 1.31245 43.65558 28309 ft 480 kts 268°
2026-04-23 15:56 1.31348 43.62224 28405 ft 481 kts 281°
2026-04-23 15:56 1.32466 43.59093 28610 ft 478 kts 299°
2026-04-23 15:57 1.34312 43.56382 29233 ft 468 kts 310°
2026-04-23 15:57 1.36698 43.54177 29418 ft 470 kts 325°
2026-04-23 15:57 1.39432 43.52430 29604 ft 471 kts 327°
2026-04-23 15:57 1.42230 43.50686 29754 ft 473 kts 327°
2026-04-23 15:58 1.45019 43.48938 29837 ft 475 kts 327°
2026-04-23 15:58 1.47797 43.47178 30003 ft 476 kts 327°
2026-04-23 15:58 1.50583 43.45397 30271 ft 473 kts 327°
2026-04-23 15:58 1.53336 43.43624 30565 ft 470 kts 326°
2026-04-23 15:59 1.56092 43.41843 30785 ft 470 kts 326°
2026-04-23 15:59 1.58827 43.40073 30917 ft 471 kts 326°
2026-04-23 15:59 1.60660 43.38886 31007 ft 472 kts 326°
2026-04-23 15:59 1.64339 43.36505 31273 ft 471 kts 326°
2026-04-23 16:00 1.67069 43.34739 31548 ft 469 kts 326°
2026-04-23 16:00 1.69798 43.32974 31823 ft 467 kts 326°
2026-04-23 16:00 1.72523 43.31213 32038 ft 467 kts 326°
2026-04-23 16:00 1.74351 43.30030 32149 ft 468 kts 326°
2026-04-23 16:01 1.77078 43.28267 32331 ft 468 kts 326°
2026-04-23 16:01 1.79835 43.26484 32573 ft 467 kts 326°
2026-04-23 16:01 1.82550 43.24729 32871 ft 465 kts 326°
2026-04-23 16:01 1.85237 43.22992 33167 ft 462 kts 326°
2026-04-23 16:02 1.87942 43.21242 33406 ft 462 kts 326°
2026-04-23 16:02 1.90620 43.19510 33566 ft 463 kts 326°
2026-04-23 16:02 1.93338 43.17752 33717 ft 464 kts 326°
2026-04-23 16:02 1.96064 43.15988 33946 ft 463 kts 326°
2026-04-23 16:03 1.98738 43.14259 34233 ft 460 kts 326°
2026-04-23 16:03 2.01434 43.12515 34523 ft 457 kts 326°
2026-04-23 16:03 2.04081 43.10794 34694 ft 457 kts 326°
2026-04-23 16:04 2.09409 43.07312 34868 ft 462 kts 326°
2026-04-23 16:04 2.12129 43.05532 35118 ft 459 kts 326°
2026-04-23 16:04 2.14786 43.03794 35456 ft 455 kts 326°
2026-04-23 16:04 2.17424 43.02068 35740 ft 452 kts 326°
2026-04-23 16:05 2.20055 43.00348 35891 ft 453 kts 326°
2026-04-23 16:05 2.25330 42.96898 36050 ft 458 kts 326°
2026-04-23 16:05 2.28003 42.95151 36219 ft 457 kts 326°
2026-04-23 16:06 2.30648 42.93422 36495 ft 454 kts 326°
2026-04-23 16:06 2.33288 42.91696 36776 ft 451 kts 326°
2026-04-23 16:06 2.35890 42.89995 36949 ft 450 kts 326°
2026-04-23 16:07 2.41185 42.86533 37105 ft 454 kts 326°
2026-04-23 16:07 2.43823 42.84808 37249 ft 454 kts 326°
2026-04-23 16:07 2.46452 42.83088 37497 ft 451 kts 326°
2026-04-23 16:07 2.49078 42.81371 37748 ft 448 kts 326°
2026-04-23 16:08 2.51679 42.79670 37894 ft 448 kts 326°
2026-04-23 16:08 2.56905 42.76252 37893 ft 451 kts 326°
2026-04-23 16:09 2.62185 42.72798 37851 ft 453 kts 326°
2026-04-23 16:09 2.67446 42.69357 37830 ft 454 kts 326°
2026-04-23 16:10 2.72710 42.65912 37832 ft 454 kts 326°
2026-04-23 16:10 2.78022 42.62437 37837 ft 454 kts 326°
2026-04-23 16:11 2.83298 42.58984 37839 ft 453 kts 326°
2026-04-23 16:11 2.88541 42.55553 37849 ft 452 kts 326°
2026-04-23 16:12 2.93787 42.52119 37862 ft 451 kts 326°
2026-04-23 16:12 2.99046 42.48677 37874 ft 450 kts 326°
2026-04-23 16:13 3.04288 42.45245 37869 ft 449 kts 326°
2026-04-23 16:13 3.12120 42.40117 37859 ft 448 kts 326°
2026-04-23 16:14 3.17315 42.36715 37862 ft 448 kts 326°
2026-04-23 16:14 3.22545 42.33289 37853 ft 448 kts 326°
2026-04-23 16:15 3.27746 42.29883 37833 ft 448 kts 326°
2026-04-23 16:15 3.32979 42.26454 37827 ft 449 kts 326°
2026-04-23 16:16 3.38215 42.23024 37857 ft 449 kts 326°
2026-04-23 16:16 3.43437 42.19601 37861 ft 449 kts 326°
2026-04-23 16:17 3.48660 42.16178 37843 ft 451 kts 326°
2026-04-23 16:17 3.53912 42.12736 37832 ft 452 kts 326°
2026-04-23 16:18 3.59166 42.09291 37846 ft 452 kts 326°
2026-04-23 16:18 3.64429 42.05840 37854 ft 452 kts 326°
2026-04-23 16:19 3.69666 42.02406 37849 ft 453 kts 326°
2026-04-23 16:19 3.74939 41.98948 37826 ft 453 kts 326°
2026-04-23 16:20 3.80214 41.95487 37849 ft 453 kts 326°
2026-04-23 16:20 3.85516 41.92007 37841 ft 453 kts 326°
2026-04-23 16:21 3.90783 41.88593 37816 ft 453 kts 330°
2026-04-23 16:21 3.93668 41.87298 37793 ft 454 kts 342°
2026-04-23 16:21 3.96706 41.86529 37927 ft 452 kts 349°
2026-04-23 16:22 3.99861 41.86256 37787 ft 455 kts 359°
2026-04-23 16:22 4.02987 41.86291 38055 ft 449 kts 359°
2026-04-23 16:22 4.06153 41.86315 37789 ft 455 kts 359°
2026-04-23 16:22 4.09291 41.86324 37936 ft 452 kts 359°
2026-04-23 16:23 4.12427 41.86322 37803 ft 455 kts 359°
2026-04-23 16:23 4.15624 41.86312 37887 ft 453 kts 359°
2026-04-23 16:23 4.21942 41.86279 37869 ft 454 kts 358°
2026-04-23 16:24 4.28250 41.86243 37860 ft 454 kts 358°
2026-04-23 16:24 4.34616 41.86209 37854 ft 455 kts 358°
2026-04-23 16:25 4.40933 41.86175 37847 ft 455 kts 358°
2026-04-23 16:25 4.47256 41.86142 37840 ft 456 kts 358°
2026-04-23 16:26 4.53619 41.86109 37827 ft 456 kts 358°
2026-04-23 16:26 4.59965 41.86076 37819 ft 456 kts 358°
2026-04-23 16:27 4.66291 41.86042 37847 ft 456 kts 358°
2026-04-23 16:27 4.72638 41.86009 37843 ft 455 kts 358°
2026-04-23 16:28 4.78958 41.85976 37829 ft 455 kts 358°
2026-04-23 16:28 4.85319 41.85943 37849 ft 454 kts 358°
2026-04-23 16:29 4.91641 41.85910 37820 ft 455 kts 358°
2026-04-23 16:29 4.97982 41.85876 37850 ft 454 kts 358°
2026-04-23 16:30 5.04258 41.85843 37840 ft 454 kts 358°
2026-04-23 16:30 5.10620 41.85810 37838 ft 454 kts 358°
2026-04-23 16:31 5.16924 41.85777 37837 ft 454 kts 358°
2026-04-23 16:31 5.23269 41.85744 37834 ft 454 kts 358°
2026-04-23 16:32 5.29593 41.85711 37852 ft 454 kts 358°
2026-04-23 16:32 5.35907 41.85677 37834 ft 455 kts 358°
2026-04-23 16:33 5.42222 41.85644 37849 ft 455 kts 358°
2026-04-23 16:33 5.48574 41.85611 37844 ft 455 kts 358°
2026-04-23 16:34 5.54878 41.85578 37845 ft 455 kts 358°
2026-04-23 16:34 5.61267 41.85544 37859 ft 455 kts 358°
2026-04-23 16:35 5.67610 41.85511 37863 ft 456 kts 358°
2026-04-23 16:35 5.73943 41.85482 37838 ft 455 kts 358°
2026-04-23 16:36 5.80233 41.85460 37872 ft 452 kts 358°
2026-04-23 16:36 5.86488 41.85440 37888 ft 449 kts 358°
2026-04-23 16:37 5.92750 41.85418 37869 ft 447 kts 358°
2026-04-23 16:37 5.98929 41.85396 37850 ft 446 kts 358°
2026-04-23 16:38 6.05129 41.85373 37856 ft 444 kts 358°
2026-04-23 16:38 6.11317 41.85351 37903 ft 442 kts 358°
2026-04-23 16:39 6.17478 41.85329 37908 ft 441 kts 358°
2026-04-23 16:39 6.23606 41.85306 37872 ft 443 kts 358°
2026-04-23 16:40 6.29796 41.85284 37846 ft 445 kts 358°
2026-04-23 16:40 6.35987 41.85262 37848 ft 446 kts 358°
2026-04-23 16:41 6.42216 41.85239 37844 ft 447 kts 358°
2026-04-23 16:41 6.48394 41.85217 37842 ft 448 kts 358°
2026-04-23 16:42 6.54652 41.85195 37852 ft 449 kts 358°
2026-04-23 16:42 6.59849 41.85176 37879 ft 449 kts 358°
2026-04-23 16:43 6.66108 41.85154 37873 ft 449 kts 358°
2026-04-23 16:43 6.73406 41.85127 37870 ft 449 kts 358°
2026-04-23 16:44 6.78643 41.85109 37848 ft 450 kts 358°
2026-04-23 16:44 6.84869 41.85086 37851 ft 449 kts 358°
2026-04-23 16:45 6.91109 41.85064 37869 ft 448 kts 358°
2026-04-23 16:45 6.97337 41.85041 37865 ft 447 kts 358°
2026-04-23 16:46 7.03554 41.85019 37857 ft 446 kts 358°
2026-04-23 16:46 7.09758 41.84997 37884 ft 445 kts 358°
2026-04-23 16:47 7.15949 41.84974 37864 ft 445 kts 358°
2026-04-23 16:47 7.22133 41.84952 37869 ft 444 kts 358°
2026-04-23 16:48 7.28312 41.84930 37872 ft 444 kts 358°
2026-04-23 16:48 7.34484 41.84907 37870 ft 443 kts 357°
2026-04-23 16:49 7.40611 41.84885 37870 ft 444 kts 357°
2026-04-23 16:49 7.46822 41.84862 37890 ft 444 kts 357°
2026-04-23 16:50 7.53002 41.84840 37875 ft 444 kts 357°
2026-04-23 16:50 7.59174 41.84818 37886 ft 444 kts 357°
2026-04-23 16:51 7.65364 41.84796 37887 ft 445 kts 357°
2026-04-23 16:51 7.71562 41.84774 37879 ft 445 kts 357°
2026-04-23 16:52 7.77749 41.84760 37890 ft 446 kts 357°
2026-04-23 16:52 7.83961 41.84746 37881 ft 447 kts 357°
2026-04-23 16:53 7.90159 41.84733 37900 ft 447 kts 357°
2026-04-23 16:53 7.96384 41.84719 37888 ft 447 kts 358°
2026-04-23 16:54 8.02597 41.84704 37889 ft 448 kts 358°
2026-04-23 16:54 8.08826 41.84690 37916 ft 447 kts 358°
2026-04-23 16:55 8.15042 41.84676 37888 ft 448 kts 358°
2026-04-23 16:55 8.21289 41.84661 37897 ft 447 kts 358°
2026-04-23 16:56 8.27528 41.84647 37917 ft 447 kts 358°
2026-04-23 16:56 8.33709 41.84634 37907 ft 447 kts 358°
2026-04-23 16:57 8.39927 41.84625 37904 ft 446 kts 358°
2026-04-23 16:57 8.46130 41.84616 37916 ft 446 kts 358°
2026-04-23 16:58 8.52333 41.84606 37914 ft 445 kts 358°
2026-04-23 16:58 8.58530 41.84596 37915 ft 445 kts 358°
2026-04-23 16:59 8.64641 41.84587 37939 ft 444 kts 358°
2026-04-23 16:59 8.70797 41.84577 37925 ft 444 kts 358°
2026-04-23 17:00 8.76974 41.84567 37931 ft 444 kts 358°
2026-04-23 17:00 8.83190 41.84558 37955 ft 443 kts 358°
2026-04-23 17:01 8.89318 41.84548 37945 ft 443 kts 358°
2026-04-23 17:01 8.95485 41.84538 37958 ft 443 kts 358°
2026-04-23 17:02 9.01663 41.84529 37949 ft 444 kts 358°
2026-04-23 17:02 9.07836 41.84519 37982 ft 443 kts 358°
2026-04-23 17:03 9.14017 41.84509 37979 ft 444 kts 358°
2026-04-23 17:03 9.20195 41.84500 37960 ft 444 kts 358°
2026-04-23 17:04 9.26277 41.84490 37977 ft 443 kts 358°
2026-04-23 17:04 9.32407 41.84480 37962 ft 443 kts 358°
2026-04-23 17:05 9.38571 41.84471 37973 ft 443 kts 358°
2026-04-23 17:05 9.44744 41.84461 37947 ft 444 kts 358°
2026-04-23 17:06 9.50914 41.84451 37953 ft 444 kts 358°
2026-04-23 17:06 9.57093 41.84441 37923 ft 444 kts 358°
2026-04-23 17:07 9.63270 41.84894 37841 ft 450 kts 12°
2026-04-23 17:07 9.66236 41.85893 37991 ft 450 kts 20°
2026-04-23 17:07 9.69034 41.87367 37834 ft 458 kts 31°
2026-04-23 17:08 9.71657 41.89163 38096 ft 453 kts 31°
2026-04-23 17:08 9.74281 41.90960 37867 ft 458 kts 31°
2026-04-23 17:08 9.76927 41.92756 37974 ft 456 kts 31°
2026-04-23 17:08 9.79577 41.94540 37876 ft 459 kts 30°
2026-04-23 17:09 9.84919 41.98108 37853 ft 460 kts 30°
2026-04-23 17:09 9.90268 42.01668 37856 ft 461 kts 30°
2026-04-23 17:10 9.95635 42.05242 37857 ft 461 kts 30°
2026-04-23 17:10 10.01005 42.08820 37854 ft 461 kts 30°
2026-04-23 17:11 10.06364 42.12393 37817 ft 462 kts 30°
2026-04-23 17:11 10.09051 42.14184 37112 ft 470 kts 30°
2026-04-23 17:11 10.11775 42.16001 36751 ft 463 kts 30°
2026-04-23 17:12 10.14468 42.17800 35898 ft 468 kts 30°
2026-04-23 17:12 10.17174 42.19607 35557 ft 461 kts 30°
2026-04-23 17:12 10.19890 42.21419 34630 ft 470 kts 30°
2026-04-23 17:12 10.22534 42.23185 34084 ft 467 kts 30°
2026-04-23 17:13 10.25272 42.25012 33412 ft 469 kts 31°
2026-04-23 17:13 10.28011 42.26841 32408 ft 476 kts 31°
2026-04-23 17:13 10.30753 42.28674 31896 ft 470 kts 31°
2026-04-23 17:13 10.33519 42.30522 31086 ft 476 kts 31°
2026-04-23 17:14 10.36280 42.32367 30193 ft 480 kts 32°
2026-04-23 17:14 10.39056 42.34224 29784 ft 473 kts 32°
2026-04-23 17:14 10.41817 42.36071 29015 ft 474 kts 32°
2026-04-23 17:14 10.44541 42.37894 28444 ft 469 kts 32°
2026-04-23 17:15 10.47254 42.39709 27987 ft 463 kts 32°
2026-04-23 17:15 10.49945 42.41510 27291 ft 463 kts 32°
2026-04-23 17:15 10.52617 42.43298 26813 ft 458 kts 32°
2026-04-23 17:15 10.55267 42.45071 26246 ft 455 kts 33°
2026-04-23 17:16 10.57907 42.46839 25701 ft 452 kts 33°
2026-04-23 17:16 10.60528 42.48595 25133 ft 450 kts 33°
2026-04-23 17:16 10.63134 42.50341 24591 ft 448 kts 33°
2026-04-23 17:16 10.65735 42.52081 24032 ft 446 kts 33°
2026-04-23 17:17 10.68356 42.53793 23176 ft 452 kts 33°
2026-04-23 17:17 10.70976 42.55468 22561 ft 448 kts 33°
2026-04-23 17:17 10.72761 42.56602 22119 ft 447 kts 33°
2026-04-23 17:17 10.76254 42.58822 21407 ft 440 kts 33°
2026-04-23 17:18 10.81383 42.62094 20346 ft 431 kts 33°
2026-04-23 17:18 10.83875 42.63690 19825 ft 426 kts 33°
2026-04-23 17:18 10.86376 42.65293 19317 ft 422 kts 34°
2026-04-23 17:19 10.88852 42.66883 18770 ft 420 kts 34°
2026-04-23 17:19 10.91309 42.68461 18256 ft 416 kts 34°
2026-04-23 17:19 10.93751 42.70028 17666 ft 412 kts 34°
2026-04-23 17:19 10.96137 42.71559 17122 ft 398 kts 34°
2026-04-23 17:20 10.98443 42.73039 16635 ft 385 kts 34°
2026-04-23 17:20 11.02841 42.75863 15685 ft 363 kts 34°
2026-04-23 17:21 11.07019 42.78549 14806 ft 348 kts 34°
2026-04-23 17:21 11.09048 42.79854 14367 ft 344 kts 34°
2026-04-23 17:21 11.13225 42.82544 13414 ft 367 kts 34°
2026-04-23 17:22 11.15365 42.83920 12926 ft 359 kts 34°
2026-04-23 17:22 11.19465 42.86554 12011 ft 338 kts 34°
2026-04-23 17:23 11.23376 42.89068 11190 ft 328 kts 34°
2026-04-23 17:23 11.25322 42.90320 10803 ft 337 kts 34°
2026-04-23 17:23 11.29328 42.92896 10470 ft 330 kts 33°
2026-04-23 17:24 11.31216 42.94108 10342 ft 312 kts 34°
2026-04-23 17:24 11.33001 42.95257 10198 ft 296 kts 34°
2026-04-23 17:24 11.36311 42.97392 9965 ft 270 kts 34°
2026-04-23 17:25 11.39454 42.99420 9597 ft 274 kts 34°
2026-04-23 17:25 11.41087 43.00475 9326 ft 281 kts 34°
2026-04-23 17:26 11.44342 43.02572 8720 ft 270 kts 34°
2026-04-23 17:26 11.47430 43.04562 8163 ft 256 kts 34°
2026-04-23 17:27 11.50427 43.06494 7668 ft 258 kts 34°
2026-04-23 17:27 11.51983 43.07498 7540 ft 266 kts 33°
2026-04-23 17:27 11.53539 43.08555 7349 ft 268 kts 42°
2026-04-23 17:27 11.54562 43.10045 7151 ft 252 kts 72°
2026-04-23 17:28 11.54822 43.11180 7045 ft 244 kts 85°
2026-04-23 17:28 11.54872 43.12854 6805 ft 237 kts 91°
2026-04-23 17:28 11.54829 43.14531 6577 ft 239 kts 92°
2026-04-23 17:28 11.54775 43.16254 6313 ft 247 kts 92°
2026-04-23 17:29 11.54726 43.18011 6040 ft 248 kts 92°
2026-04-23 17:29 11.54683 43.19766 5761 ft 248 kts 92°
2026-04-23 17:29 11.54609 43.23273 5256 ft 247 kts 91°
2026-04-23 17:30 11.54576 43.24998 5102 ft 242 kts 92°
2026-04-23 17:30 11.54514 43.28395 4617 ft 233 kts 92°
2026-04-23 17:30 11.54486 43.30007 4360 ft 221 kts 92°
2026-04-23 17:31 11.54455 43.31511 4138 ft 209 kts 94°
2026-04-23 17:31 11.54041 43.32886 3889 ft 195 kts 123°
2026-04-23 17:31 11.53165 43.33852 3827 ft 185 kts 142°
2026-04-23 17:31 11.52020 43.34425 3729 ft 182 kts 164°
2026-04-23 17:32 11.50739 43.34515 3538 ft 190 kts 187°
2026-04-23 17:32 11.49485 43.34059 3360 ft 194 kts 211°
2026-04-23 17:32 11.48533 43.33128 3159 ft 193 kts 233°
2026-04-23 17:32 11.47955 43.31906 2948 ft 192 kts 254°
2026-04-23 17:33 11.48052 43.30591 2667 ft 189 kts 304°
2026-04-23 17:33 11.49074 43.29865 2584 ft 183 kts 347°
2026-04-23 17:33 11.50264 43.29450 2371 ft 178 kts 336°
2026-04-23 17:33 11.51303 43.28869 2230 ft 162 kts 332°
2026-04-23 17:34 11.52272 43.28298 2206 ft 157 kts 333°
2026-04-23 17:34 11.53259 43.27871 2201 ft 156 kts 351°
2026-04-23 17:34 11.55029 43.26801 2129 ft 161 kts 283°
2026-04-23 17:35 11.54831 43.25730 2000 ft 154 kts 240°
2026-04-23 17:35 11.54580 43.23684 1177 ft 148 kts 297°
2026-04-23 17:35 11.54955 43.22689 939 ft 156 kts 277°
2026-04-23 17:36 11.54640 43.21669 770 ft 154 kts 232°
2026-04-23 17:36 11.54028 43.20756 564 ft 159 kts 248°
2026-04-23 17:36 11.54128 43.19709 396 ft 154 kts 303°
2026-04-23 17:36 11.54679 43.18770 293 ft 152 kts 285°
2026-04-23 17:37 11.54673 43.17664 160 ft 157 kts 272°
2026-04-23 17:37 11.54725 43.16636 43 ft 131 kts 271°
2026-04-23 17:37 11.54792 43.16016 42 ft 13 kts 340°
2026-04-23 17:38 11.54826 43.16008 41 ft 0 kts 347°